TVF4119 EPWR-LFPO

Flight info

Callsign TVF4119
Flight time 1h 16m
Altitude 38000
Route ULGIL T707 TOMTI DCT ASTEL DCT OKG L984 KOMIB DCT LOHRE DCT BETEX DCT IDOSA UN857 TOLVU DCT RAPOR DCT RENSA
Aircraft B738/M-SDE2E3FGHIRWXY/LB1

Departure

Time 2026-05-04 14:28
Airport Copernicus Wrocław Airport (EPWR)

Arrival

Time 2026-05-04 15:44
Airport Paris-Orly Airport (LFPO)
Time Latitude Longitude Altitude Speed Heading
2026-05-04 14:01 51.10835 16.88095 402 ft 0 kts 26°
2026-05-04 14:22 51.10814 16.88079 402 ft 6 kts 25°
2026-05-04 14:22 51.10783 16.88041 398 ft 6 kts 79°
2026-05-04 14:22 51.10783 16.88025 397 ft 0 kts 118°
2026-05-04 14:24 51.10759 16.88098 402 ft 17 kts 117°
2026-05-04 14:24 51.10702 16.88277 401 ft 18 kts 116°
2026-05-04 14:24 51.10648 16.88453 402 ft 17 kts 115°
2026-05-04 14:24 51.10596 16.88623 402 ft 17 kts 116°
2026-05-04 14:25 51.10546 16.88787 400 ft 16 kts 115°
2026-05-04 14:25 51.10431 16.89159 400 ft 24 kts 116°
2026-05-04 14:25 51.10361 16.89389 400 ft 23 kts 116°
2026-05-04 14:26 51.10293 16.89611 402 ft 22 kts 116°
2026-05-04 14:26 51.10227 16.89827 401 ft 21 kts 116°
2026-05-04 14:26 51.10133 16.89968 402 ft 21 kts 202°
2026-05-04 14:26 51.10051 16.89898 400 ft 20 kts 206°
2026-05-04 14:27 51.09915 16.89736 402 ft 19 kts 280°
2026-05-04 14:27 51.10019 16.89387 404 ft 71 kts 296°
2026-05-04 14:27 51.10357 16.88276 407 ft 149 kts 294°
2026-05-04 14:27 51.10864 16.86632 905 ft 179 kts 296°
2026-05-04 14:28 51.11249 16.85409 1588 ft 178 kts 295°
2026-05-04 14:28 51.11774 16.83684 2783 ft 174 kts 295°
2026-05-04 14:28 51.12302 16.81941 3614 ft 177 kts 294°
2026-05-04 14:28 51.12560 16.79937 4074 ft 202 kts 260°
2026-05-04 14:29 51.10332 16.76934 4743 ft 240 kts 203°
2026-05-04 14:29 51.08392 16.72740 5959 ft 244 kts 247°
2026-05-04 14:30 51.07677 16.70287 6623 ft 246 kts 244°
2026-05-04 14:30 51.06896 16.67861 7275 ft 247 kts 243°
2026-05-04 14:30 51.05122 16.62834 8347 ft 271 kts 240°
2026-05-04 14:31 51.04162 16.60266 8844 ft 270 kts 239°
2026-05-04 14:31 51.02195 16.55120 8939 ft 273 kts 239°
2026-05-04 14:32 51.00798 16.49708 8972 ft 270 kts 268°
2026-05-04 14:32 51.01072 16.46740 9375 ft 276 kts 284°
2026-05-04 14:32 51.01636 16.43815 10232 ft 278 kts 285°
2026-05-04 14:32 51.02256 16.40750 10604 ft 300 kts 285°
2026-05-04 14:33 51.02911 16.37510 10812 ft 324 kts 285°
2026-05-04 14:33 51.03611 16.34024 11343 ft 336 kts 285°
2026-05-04 14:33 51.04322 16.30466 12110 ft 340 kts 285°
2026-05-04 14:33 51.05036 16.26875 12925 ft 342 kts 284°
2026-05-04 14:34 51.05753 16.23241 13714 ft 346 kts 284°
2026-05-04 14:34 51.06484 16.19523 14391 ft 351 kts 284°
2026-05-04 14:34 51.07213 16.15798 15079 ft 354 kts 284°
2026-05-04 14:34 51.07946 16.12048 15800 ft 357 kts 285°
2026-05-04 14:35 51.08677 16.08299 16469 ft 361 kts 285°
2026-05-04 14:35 51.09391 16.04451 17138 ft 364 kts 280°
2026-05-04 14:35 51.09520 16.00386 17801 ft 365 kts 262°
2026-05-04 14:35 51.08936 15.96512 18431 ft 367 kts 253°
2026-05-04 14:36 51.08163 15.92614 19005 ft 371 kts 251°
2026-05-04 14:36 51.07353 15.88707 19598 ft 373 kts 251°
2026-05-04 14:36 51.06537 15.84780 20183 ft 376 kts 251°
2026-05-04 14:36 51.05721 15.80811 20752 ft 379 kts 251°
2026-05-04 14:37 51.04908 15.76815 21331 ft 381 kts 252°
2026-05-04 14:37 51.04095 15.72788 21869 ft 385 kts 252°
2026-05-04 14:37 51.03278 15.68724 22425 ft 388 kts 252°
2026-05-04 14:37 51.02456 15.64629 22936 ft 391 kts 252°
2026-05-04 14:38 51.01627 15.60503 23474 ft 393 kts 252°
2026-05-04 14:38 51.00791 15.56355 23917 ft 396 kts 252°
2026-05-04 14:38 50.99949 15.52180 24366 ft 398 kts 252°
2026-05-04 14:38 50.99100 15.47984 24810 ft 400 kts 252°
2026-05-04 14:39 50.98246 15.43772 25236 ft 402 kts 252°
2026-05-04 14:39 50.97385 15.39530 25655 ft 405 kts 252°
2026-05-04 14:39 50.96519 15.35273 26073 ft 407 kts 252°
2026-05-04 14:40 50.94768 15.26699 26877 ft 411 kts 252°
2026-05-04 14:40 50.93886 15.22379 27262 ft 413 kts 252°
2026-05-04 14:40 50.92999 15.18038 27646 ft 415 kts 252°
2026-05-04 14:40 50.92106 15.13675 28028 ft 417 kts 252°
2026-05-04 14:41 50.91208 15.09292 28408 ft 419 kts 252°
2026-05-04 14:41 50.90306 15.04903 28765 ft 421 kts 252°
2026-05-04 14:41 50.88483 14.96055 29481 ft 424 kts 252°
2026-05-04 14:42 50.86634 14.87148 30160 ft 427 kts 251°
2026-05-04 14:42 50.85490 14.82824 30574 ft 425 kts 245°
2026-05-04 14:42 50.84188 14.78647 31041 ft 422 kts 244°
2026-05-04 14:43 50.82880 14.74508 31460 ft 420 kts 244°
2026-05-04 14:43 50.81575 14.70387 31843 ft 418 kts 244°
2026-05-04 14:43 50.80277 14.66278 32171 ft 418 kts 244°
2026-05-04 14:43 50.78982 14.62168 32548 ft 417 kts 244°
2026-05-04 14:44 50.77695 14.58074 32958 ft 415 kts 244°
2026-05-04 14:44 50.76414 14.53998 33332 ft 413 kts 244°
2026-05-04 14:44 50.75138 14.49940 33675 ft 413 kts 244°
2026-05-04 14:44 50.73862 14.45882 34020 ft 412 kts 244°
2026-05-04 14:45 50.72590 14.41844 34300 ft 411 kts 244°
2026-05-04 14:45 50.71316 14.37807 34544 ft 411 kts 244°
2026-05-04 14:45 50.70040 14.33768 34793 ft 411 kts 244°
2026-05-04 14:45 50.68762 14.29731 35049 ft 411 kts 244°
2026-05-04 14:46 50.67503 14.25762 35302 ft 411 kts 244°
2026-05-04 14:46 50.66206 14.21680 35537 ft 411 kts 244°
2026-05-04 14:46 50.64925 14.17655 35792 ft 410 kts 244°
2026-05-04 14:46 50.63648 14.13646 36041 ft 410 kts 244°
2026-05-04 14:47 50.62367 14.09634 36276 ft 410 kts 244°
2026-05-04 14:47 50.61088 14.05635 36520 ft 409 kts 244°
2026-05-04 14:47 50.59808 14.01638 36758 ft 409 kts 244°
2026-05-04 14:47 50.58544 13.97698 36963 ft 409 kts 244°
2026-05-04 14:48 50.57263 13.93710 37201 ft 408 kts 244°
2026-05-04 14:48 50.55982 13.89729 37431 ft 408 kts 244°
2026-05-04 14:48 50.54699 13.85750 37631 ft 408 kts 244°
2026-05-04 14:48 50.53419 13.81783 37862 ft 407 kts 244°
2026-05-04 14:49 50.50845 13.73829 37954 ft 409 kts 244°
2026-05-04 14:49 50.48264 13.65879 37955 ft 407 kts 244°
2026-05-04 14:50 50.45691 13.57981 37957 ft 405 kts 243°
2026-05-04 14:50 50.43125 13.50125 37957 ft 404 kts 243°
2026-05-04 14:51 50.40560 13.42300 37957 ft 403 kts 243°
2026-05-04 14:51 50.37995 13.34496 37959 ft 403 kts 243°
2026-05-04 14:52 50.35425 13.26702 37968 ft 403 kts 243°
2026-05-04 14:52 50.32843 13.18898 37971 ft 404 kts 243°
2026-05-04 14:53 50.30252 13.11089 37979 ft 405 kts 243°
2026-05-04 14:53 50.27643 13.03252 37985 ft 407 kts 243°
2026-05-04 14:54 50.25019 12.95391 37992 ft 409 kts 243°
2026-05-04 14:54 50.22377 12.87506 37991 ft 411 kts 243°
2026-05-04 14:55 50.19721 12.79598 37989 ft 412 kts 243°
2026-05-04 14:55 50.17051 12.71677 37987 ft 413 kts 243°
2026-05-04 14:56 50.14391 12.63807 37979 ft 413 kts 243°
2026-05-04 14:56 50.11691 12.55841 37974 ft 413 kts 243°
2026-05-04 14:57 50.09002 12.47936 37964 ft 412 kts 242°
2026-05-04 14:57 50.07015 12.39627 37977 ft 410 kts 257°
2026-05-04 14:58 50.06545 12.30866 37982 ft 410 kts 270°
2026-05-04 14:58 50.06723 12.21985 37978 ft 409 kts 270°
2026-05-04 14:59 50.06860 12.13138 37974 ft 409 kts 269°
2026-05-04 15:00 50.06999 11.99897 37984 ft 407 kts 269°
2026-05-04 15:00 50.07079 11.91082 37985 ft 407 kts 269°
2026-05-04 15:01 50.07191 11.77868 37981 ft 407 kts 269°
2026-05-04 15:01 50.07259 11.69053 37983 ft 408 kts 269°
2026-05-04 15:02 50.07318 11.60217 37988 ft 408 kts 269°
2026-05-04 15:02 50.07371 11.51370 37975 ft 409 kts 268°
2026-05-04 15:03 50.07417 11.42497 37983 ft 410 kts 268°
2026-05-04 15:03 50.07458 11.33608 37980 ft 411 kts 268°
2026-05-04 15:04 50.07494 11.24706 37980 ft 412 kts 268°
2026-05-04 15:04 50.07515 11.15786 37980 ft 412 kts 268°
2026-05-04 15:05 50.07522 11.06866 37975 ft 412 kts 268°
2026-05-04 15:05 50.07525 10.97947 37977 ft 412 kts 268°
2026-05-04 15:06 50.07522 10.89013 37977 ft 412 kts 268°
2026-05-04 15:07 50.07506 10.75619 37977 ft 413 kts 268°
2026-05-04 15:07 50.07485 10.66691 37976 ft 413 kts 268°
2026-05-04 15:08 50.07458 10.57751 37970 ft 413 kts 267°
2026-05-04 15:08 50.07425 10.48822 37968 ft 413 kts 267°
2026-05-04 15:09 50.07385 10.39890 37972 ft 412 kts 267°
2026-05-04 15:09 50.07340 10.30968 37967 ft 412 kts 267°
2026-05-04 15:10 50.07263 10.17587 37964 ft 412 kts 267°
2026-05-04 15:11 50.07186 10.04236 37969 ft 411 kts 267°
2026-05-04 15:11 50.07137 9.96845 37966 ft 411 kts 267°
2026-05-04 15:12 50.07072 9.87961 37966 ft 410 kts 267°
2026-05-04 15:12 50.06999 9.79085 37967 ft 410 kts 266°
2026-05-04 15:13 50.06920 9.70220 37970 ft 410 kts 266°
2026-05-04 15:13 50.06835 9.61356 37969 ft 410 kts 266°
2026-05-04 15:14 50.06743 9.52487 37975 ft 410 kts 266°
2026-05-04 15:14 50.06448 9.43640 37984 ft 410 kts 262°
2026-05-04 15:15 50.05816 9.34826 37970 ft 410 kts 261°
2026-05-04 15:15 50.05154 9.26020 37984 ft 410 kts 261°
2026-05-04 15:16 50.04186 9.12759 37967 ft 412 kts 261°
2026-05-04 15:17 50.03266 9.00034 37967 ft 411 kts 261°
2026-05-04 15:17 50.02420 8.88468 37972 ft 411 kts 261°
2026-05-04 15:18 50.01765 8.79633 37978 ft 411 kts 261°
2026-05-04 15:19 50.00771 8.66392 37973 ft 411 kts 261°
2026-05-04 15:19 49.99765 8.53211 37968 ft 411 kts 261°
2026-05-04 15:20 49.99080 8.44337 37964 ft 411 kts 260°
2026-05-04 15:20 49.98396 8.35577 37997 ft 411 kts 260°
2026-05-04 15:21 49.97699 8.26742 37989 ft 413 kts 260°
2026-05-04 15:22 49.96637 8.13433 38004 ft 416 kts 260°
2026-05-04 15:22 49.95552 8.00030 37988 ft 417 kts 260°
2026-05-04 15:23 49.94822 7.91116 37994 ft 415 kts 260°
2026-05-04 15:23 49.94089 7.82260 37981 ft 413 kts 260°
2026-05-04 15:24 49.92615 7.64686 38009 ft 408 kts 259°
2026-05-04 15:25 49.91872 7.55966 38011 ft 407 kts 259°
2026-05-04 15:26 49.90749 7.42918 38023 ft 407 kts 259°
2026-05-04 15:26 49.89609 7.29857 38027 ft 409 kts 259°
2026-05-04 15:27 49.88447 7.16720 38025 ft 411 kts 259°
2026-05-04 15:28 49.87264 7.03509 38020 ft 414 kts 259°
2026-05-04 15:29 49.86059 6.90233 37977 ft 415 kts 259°
2026-05-04 15:30 49.83175 6.59123 37984 ft 418 kts 259°
2026-05-04 15:31 49.81912 6.45772 37988 ft 417 kts 258°
2026-05-04 15:32 49.80378 6.32710 37972 ft 394 kts 255°
2026-05-04 15:32 49.79267 6.24597 37996 ft 382 kts 255°
2026-05-04 15:33 49.78185 6.16610 37464 ft 377 kts 255°
2026-05-04 15:34 49.76597 6.04755 35463 ft 372 kts 254°
2026-05-04 15:34 49.76074 6.00859 34969 ft 367 kts 254°
2026-05-04 15:34 49.75048 5.93235 33984 ft 358 kts 253°
2026-05-04 15:35 49.67165 5.52437 32789 ft 347 kts 243°
2026-05-04 15:35 49.66082 5.49132 31132 ft 353 kts 238°
2026-05-04 15:35 49.51992 4.87765 29087 ft 379 kts 253°
2026-05-04 15:36 49.41008 4.21682 25028 ft 391 kts 250°
2026-05-04 15:36 49.40214 4.17674 23116 ft 394 kts 251°
2026-05-04 15:36 49.39473 4.13628 21039 ft 393 kts 253°
2026-05-04 15:37 49.38771 4.09580 19098 ft 391 kts 254°
2026-05-04 15:37 49.38082 4.05555 17099 ft 388 kts 254°
2026-05-04 15:37 49.26632 3.76016 15129 ft 385 kts 257°
2026-05-04 15:37 49.25825 3.72133 13155 ft 383 kts 243°
2026-05-04 15:38 49.14510 3.43757 11173 ft 379 kts 229°
2026-05-04 15:38 49.12782 3.40757 9256 ft 375 kts 231°
2026-05-04 15:38 48.98003 3.06614 8539 ft 345 kts 231°
2026-05-04 15:38 48.96486 3.03951 7756 ft 324 kts 228°
2026-05-04 15:39 48.85896 2.86257 6873 ft 310 kts 228°
2026-05-04 15:39 48.84637 2.84044 6011 ft 303 kts 228°
2026-05-04 15:39 48.78961 2.73311 4580 ft 276 kts 229°
2026-05-04 15:40 48.78084 2.70951 4417 ft 248 kts 258°
2026-05-04 15:40 48.77847 2.68458 4142 ft 235 kts 261°
2026-05-04 15:40 48.77532 2.66081 3868 ft 225 kts 256°
2026-05-04 15:40 48.77134 2.63848 3574 ft 214 kts 254°
2026-05-04 15:41 48.76736 2.61734 3292 ft 204 kts 254°
2026-05-04 15:41 48.76359 2.59721 3006 ft 194 kts 254°
2026-05-04 15:41 48.76002 2.57806 2763 ft 183 kts 254°
2026-05-04 15:41 48.75669 2.56014 2514 ft 172 kts 254°
2026-05-04 15:42 48.75349 2.54295 2287 ft 167 kts 254°
2026-05-04 15:42 48.75047 2.52666 2124 ft 157 kts 253°
2026-05-04 15:42 48.74751 2.51071 1880 ft 160 kts 254°
2026-05-04 15:42 48.74454 2.49462 1656 ft 159 kts 253°
2026-05-04 15:43 48.74156 2.47863 1424 ft 157 kts 254°
2026-05-04 15:43 48.73865 2.46282 1205 ft 154 kts 253°
2026-05-04 15:43 48.73566 2.44713 1022 ft 157 kts 253°
2026-05-04 15:43 48.73266 2.43107 792 ft 159 kts 255°
2026-05-04 15:44 48.72974 2.41497 546 ft 158 kts 254°
2026-05-04 15:44 48.72683 2.39922 350 ft 152 kts 255°
2026-05-04 15:44 48.72420 2.38453 283 ft 121 kts 255°
2026-05-04 15:44 48.72326 2.37769 280 ft 24 kts 286°
2026-05-04 15:45 48.72405 2.37628 283 ft 20 kts 330°
2026-05-04 15:45 48.72558 2.37640 282 ft 25 kts 20°
2026-05-04 15:45 48.72716 2.37723 280 ft 23 kts 13°
2026-05-04 15:45 48.72770 2.37563 283 ft 18 kts 254°
2026-05-04 15:46 48.72751 2.37372 284 ft 15 kts 298°
2026-05-04 15:46 48.72812 2.37329 283 ft 0 kts 342°